| time (UTC) | temp C | wind direction | speed KPH | gust KPH | rain 1hr cm | rain 24hr cm | rain mn cm | humidity % | barometer mb |
| 20260507091523 | 12 | 0.0 | 0.0 | 0.00 | 0.48 | 0.28 | 97 | 1012.3 | |
| 20260507090538 | 11 | 0.0 | 0.0 | 0.00 | 0.48 | 0.28 | 98 | 1012.0 | |
| 20260507085517 | 11 | 19 | 0.0 | 0.0 | 0.00 | 0.48 | 0.28 | 98 | 1011.9 |
| 20260507084518 | 12 | 55 | 0.0 | 1.6 | 0.00 | 0.48 | 0.28 | 97 | 1011.9 |
| 20260507083519 | 12 | 35 | 1.6 | 3.2 | 0.00 | 0.48 | 0.28 | 97 | 1011.9 |
| 20260507082518 | 12 | 59 | 1.6 | 4.8 | 0.00 | 0.48 | 0.28 | 97 | 1011.8 |
| 20260507081527 | 12 | 23 | 1.6 | 3.2 | 0.00 | 0.48 | 0.28 | 97 | 1011.3 |
| 20260507080518 | 12 | 2 | 1.6 | 3.2 | 0.00 | 0.48 | 0.28 | 97 | 1011.4 |
| 20260507075521 | 12 | 11 | 1.6 | 3.2 | 0.00 | 0.48 | 0.28 | 97 | 1011.2 |
| 20260507074538 | 12 | 35 | 3.2 | 6.4 | 0.00 | 0.48 | 0.28 | 97 | 1010.9 |
| 20260507073517 | 12 | 59 | 3.2 | 11.3 | 0.00 | 0.48 | 0.28 | 97 | 1011.0 |
| 20260507072518 | 12 | 44 | 1.6 | 4.8 | 0.00 | 0.48 | 0.28 | 97 | 1010.9 |
| 20260507071527 | 13 | 23 | 0.0 | 3.2 | 0.00 | 0.48 | 0.28 | 97 | 1010.7 |
| 20260507070518 | 12 | 34 | 0.0 | 3.2 | 0.00 | 0.48 | 0.28 | 97 | 1010.9 |
| 20260507065523 | 12 | 35 | 1.6 | 3.2 | 0.00 | 0.48 | 0.28 | 97 | 1010.7 |
| 20260507064518 | 12 | 24 | 1.6 | 3.2 | 0.00 | 0.48 | 0.28 | 97 | 1010.6 |
| 20260507063521 | 13 | 24 | 3.2 | 4.8 | 0.08 | 0.48 | 0.28 | 97 | 1010.5 |
| 20260507062519 | 13 | 28 | 1.6 | 6.4 | 0.15 | 0.48 | 0.28 | 97 | 1010.4 |
| 20260507061518 | 13 | 24 | 3.2 | 4.8 | 0.20 | 0.48 | 0.28 | 97 | 1010.7 |
| 20260507060519 | 13 | 24 | 1.6 | 6.4 | 0.28 | 0.48 | 0.28 | 97 | 1010.7 |
| 20260507055527 | 13 | 19 | 1.6 | 6.4 | 0.28 | 0.48 | 0.28 | 96 | 1010.8 |
| 20260507054517 | 14 | 39 | 0.0 | 3.2 | 0.28 | 0.48 | 0.28 | 96 | 1010.5 |
| 20260507053520 | 14 | 348 | 0.0 | 1.6 | 0.20 | 0.43 | 0.20 | 96 | 1010.4 |
| 20260507052520 | 15 | 337 | 1.6 | 4.8 | 0.15 | 0.36 | 0.15 | 95 | 1010.9 |
| 20260507051518 | 15 | 44 | 0.0 | 8.0 | 0.08 | 0.28 | 0.08 | 95 | 1010.8 |
| 20260507050519 | 16 | 0.0 | 0.0 | 0.00 | 0.20 | 0.00 | 94 | 1010.5 | |
| 20260507045527 | 16 | 30 | 0.0 | 0.0 | 0.00 | 0.20 | 0.00 | 93 | 1010.7 |
| 20260507044517 | 17 | 289 | 0.0 | 4.8 | 0.00 | 0.20 | 0.00 | 92 | 1010.8 |
| 20260507043526 | 17 | 289 | 0.0 | 3.2 | 0.00 | 0.20 | 0.00 | 92 | 1010.5 |
| 20260507042517 | 17 | 319 | 0.0 | 3.2 | 0.00 | 0.20 | 0.00 | 92 | 1010.5 |
| 20260507041602 | 17 | 351 | 0.0 | 0.0 | 0.00 | 0.20 | 0.00 | 92 | 1010.0 |
| 20260507040519 | 17 | 89 | 1.6 | 3.2 | 0.00 | 0.20 | 0.00 | 93 | 1009.9 |
| 20260507035518 | 17 | 29 | 1.6 | 4.8 | 0.00 | 0.20 | 0.20 | 93 | 1010.1 |
| 20260507034519 | 17 | 36 | 1.6 | 6.4 | 0.00 | 0.20 | 0.20 | 93 | 1010.2 |
| 20260507033528 | 18 | 22 | 1.6 | 6.4 | 0.00 | 0.20 | 0.20 | 93 | 1010.1 |
| 20260507032519 | 18 | 26 | 1.6 | 6.4 | 0.00 | 0.20 | 0.20 | 93 | 1009.8 |
| 20260507031518 | 18 | 37 | 0.0 | 3.2 | 0.00 | 0.20 | 0.20 | 93 | 1009.7 |
| 20260507030519 | 18 | 0.0 | 0.0 | 0.00 | 0.20 | 0.20 | 93 | 1009.7 | |
| 20260507025520 | 18 | 334 | 0.0 | 0.0 | 0.00 | 0.20 | 0.20 | 93 | 1009.7 |
| 20260507024519 | 18 | 315 | 0.0 | 1.6 | 0.00 | 0.20 | 0.20 | 93 | 1009.4 |
| 20260507023517 | 18 | 0.0 | 0.0 | 0.00 | 0.20 | 0.20 | 93 | 1009.3 | |
| 20260507022519 | 18 | 0.0 | 0.0 | 0.00 | 0.20 | 0.20 | 93 | 1009.3 | |
| 20260507021528 | 18 | 0.0 | 0.0 | 0.00 | 0.20 | 0.20 | 93 | 1009.2 | |
| 20260507020517 | 18 | 0.0 | 0.0 | 0.00 | 0.20 | 0.20 | 93 | 1009.3 | |
| 20260507015525 | 18 | 0.0 | 0.0 | 0.00 | 0.20 | 0.20 | 93 | 1009.1 | |
| 20260507014519 | 18 | 0.0 | 0.0 | 0.00 | 0.20 | 0.20 | 92 | 1009.5 | |
| 20260507013520 | 18 | 0.0 | 0.0 | 0.00 | 0.20 | 0.20 | 91 | 1009.7 | |
| 20260507012540 | 18 | 0.0 | 0.0 | 0.00 | 0.20 | 0.20 | 91 | 1009.8 | |
| 20260507011528 | 19 | 0.0 | 0.0 | 0.00 | 0.20 | 0.20 | 91 | 1009.9 | |
| 20260507010539 | 18 | 0.0 | 0.0 | 0.00 | 0.20 | 0.20 | 91 | 1009.4 | |
| 20260507005526 | 19 | 0.0 | 0.0 | 0.00 | 0.20 | 0.20 | 91 | 1009.5 | |
| 20260507004517 | 19 | 0.0 | 0.0 | 0.00 | 0.20 | 0.20 | 91 | 1009.3 | |
| 20260507003522 | 19 | 0.0 | 0.0 | 0.00 | 0.20 | 0.20 | 91 | 1009.3 | |
| 20260507002539 | 19 | 0.0 | 0.0 | 0.00 | 0.20 | 0.20 | 91 | 1009.1 | |
| 20260507001518 | 20 | 0.0 | 0.0 | 0.00 | 0.20 | 0.20 | 91 | 1009.2 | |
| 20260507000519 | 20 | 0.0 | 0.0 | 0.00 | 0.20 | 0.20 | 89 | 1009.2 | |
| 20260506235528 | 20 | 313 | 0.0 | 0.0 | 0.00 | 0.20 | 0.20 | 89 | 1009.1 |
| 20260506234519 | 20 | 151 | 0.0 | 1.6 | 0.00 | 0.20 | 0.20 | 89 | 1008.9 |
| 20260506233524 | 20 | 160 | 0.0 | 3.2 | 0.00 | 0.20 | 0.20 | 89 | 1008.8 |
| 20260506232519 | 20 | 246 | 0.0 | 1.6 | 0.00 | 0.20 | 0.20 | 89 | 1008.7 |
| 20260506231520 | 20 | 175 | 0.0 | 3.2 | 0.00 | 0.20 | 0.20 | 89 | 1008.5 |
| 20260506230519 | 21 | 280 | 0.0 | 4.8 | 0.00 | 0.20 | 0.20 | 89 | 1008.7 |
| 20260506225516 | 21 | 251 | 1.6 | 3.2 | 0.00 | 0.20 | 0.20 | 89 | 1008.6 |
| 20260506224537 | 21 | 248 | 1.6 | 9.7 | 0.00 | 0.20 | 0.20 | 88 | 1008.6 |
| 20260506223608 | 21 | 179 | 1.6 | 8.0 | 0.00 | 0.20 | 0.20 | 88 | 1008.7 |
| 20260506222519 | 21 | 164 | 1.6 | 6.4 | 0.00 | 0.20 | 0.20 | 88 | 1008.5 |
| 20260506221524 | 22 | 205 | 1.6 | 3.2 | 0.00 | 0.20 | 0.20 | 88 | 1008.6 |
| 20260506220521 | 22 | 235 | 1.6 | 4.8 | 0.00 | 0.20 | 0.20 | 88 | 1008.6 |
| 20260506215520 | 22 | 242 | 3.2 | 9.7 | 0.00 | 0.20 | 0.20 | 88 | 1008.7 |
| 20260506214521 | 22 | 193 | 3.2 | 6.4 | 0.00 | 0.20 | 0.20 | 88 | 1008.5 |
| 20260506213528 | 23 | 210 | 3.2 | 9.7 | 0.00 | 0.20 | 0.20 | 88 | 1008.4 |
| 20260506212601 | 23 | 215 | 1.6 | 6.4 | 0.00 | 0.20 | 0.20 | 88 | 1008.3 |
| 20260506211524 | 24 | 227 | 1.6 | 6.4 | 0.00 | 0.20 | 0.20 | 87 | 1008.4 |
| 20260506210517 | 23 | 244 | 3.2 | 4.8 | 0.00 | 0.20 | 0.20 | 87 | 1008.1 |
| 20260506205522 | 24 | 206 | 3.2 | 6.4 | 0.00 | 0.20 | 0.20 | 87 | 1008.1 |
| 20260506204521 | 24 | 234 | 3.2 | 11.3 | 0.00 | 0.20 | 0.20 | 87 | 1008.1 |
| 20260506203518 | 23 | 257 | 3.2 | 9.7 | 0.00 | 0.20 | 0.20 | 87 | 1008.1 |
| 20260506202541 | 23 | 182 | 3.2 | 6.4 | 0.00 | 0.20 | 0.20 | 87 | 1008.1 |
| 20260506201528 | 23 | 203 | 3.2 | 9.7 | 0.00 | 0.20 | 0.20 | 88 | 1008.2 |
| 20260506200518 | 23 | 172 | 3.2 | 8.0 | 0.00 | 0.20 | 0.20 | 87 | 1008.1 |
| 20260506195526 | 23 | 163 | 3.2 | 9.7 | 0.00 | 0.20 | 0.20 | 87 | 1008.0 |
| 20260506194521 | 23 | 195 | 3.2 | 8.0 | 0.00 | 0.20 | 0.20 | 87 | 1008.2 |
| 20260506193522 | 23 | 227 | 1.6 | 6.4 | 0.00 | 0.20 | 0.20 | 87 | 1008.3 |
| 20260506192521 | 23 | 175 | 1.6 | 3.2 | 0.00 | 0.20 | 0.20 | 87 | 1008.4 |
| 20260506191518 | 23 | 176 | 3.2 | 12.9 | 0.00 | 0.20 | 0.20 | 87 | 1008.4 |
| 20260506190541 | 22 | 255 | 3.2 | 6.4 | 0.00 | 0.20 | 0.20 | 87 | 1008.5 |
| 20260506185528 | 22 | 240 | 3.2 | 8.0 | 0.00 | 0.20 | 0.20 | 88 | 1008.6 |
| 20260506184519 | 23 | 175 | 3.2 | 9.7 | 0.00 | 0.20 | 0.20 | 87 | 1008.8 |
| 20260506183524 | 23 | 257 | 3.2 | 9.7 | 0.00 | 0.20 | 0.20 | 87 | 1008.9 |
| 20260506182521 | 23 | 176 | 3.2 | 14.5 | 0.00 | 0.20 | 0.20 | 87 | 1009.1 |
| 20260506181520 | 22 | 184 | 3.2 | 6.4 | 0.00 | 0.20 | 0.20 | 87 | 1009.1 |
| 20260506180520 | 21 | 209 | 3.2 | 9.7 | 0.00 | 0.20 | 0.20 | 88 | 1009.4 |
| 20260506175531 | 21 | 229 | 3.2 | 9.7 | 0.00 | 0.20 | 0.20 | 88 | 1009.3 |
| 20260506174521 | 20 | 183 | 1.6 | 16.1 | 0.00 | 0.20 | 0.20 | 89 | 1009.3 |
| 20260506173528 | 20 | 202 | 1.6 | 6.4 | 0.00 | 0.20 | 0.20 | 89 | 1009.4 |
| 20260506172517 | 20 | 178 | 3.2 | 6.4 | 0.00 | 0.20 | 0.20 | 89 | 1009.6 |
| 20260506171523 | 19 | 231 | 3.2 | 12.9 | 0.00 | 0.20 | 0.20 | 89 | 1009.5 |
| 20260506170518 | 18 | 251 | 3.2 | 11.3 | 0.00 | 0.20 | 0.20 | 89 | 1009.6 |
| 20260506165558 | 18 | 227 | 1.6 | 3.2 | 0.00 | 0.20 | 0.20 | 91 | 1009.8 |
| 20260506164521 | 17 | 219 | 3.2 | 6.4 | 0.08 | 0.20 | 0.20 | 92 | 1009.7 |
| 20260506163529 | 17 | 230 | 3.2 | 6.4 | 0.08 | 0.20 | 0.20 | 90 | 1009.5 |
| 20260506162520 | 18 | 238 | 3.2 | 6.4 | 0.08 | 0.20 | 0.20 | 90 | 1009.6 |
| 20260506161523 | 17 | 232 | 1.6 | 6.4 | 0.08 | 0.20 | 0.20 | 91 | 1009.8 |
| 20260506160521 | 16 | 56 | 1.6 | 6.4 | 0.15 | 0.20 | 0.20 | 92 | 1010.2 |
| 20260506155521 | 17 | 191 | 1.6 | 6.4 | 0.15 | 0.20 | 0.20 | 90 | 1010.1 |
| 20260506154520 | 16 | 208 | 1.6 | 4.8 | 0.15 | 0.15 | 0.15 | 91 | 1010.0 |
| 20260506153518 | 16 | 206 | 1.6 | 6.4 | 0.15 | 0.15 | 0.15 | 90 | 1010.1 |
| 20260506152520 | 16 | 199 | 1.6 | 6.4 | 0.15 | 0.15 | 0.15 | 89 | 1010.6 |
| 20260506151549 | 16 | 169 | 1.6 | 3.2 | 0.15 | 0.15 | 0.15 | 89 | 1010.8 |
| 20260506150518 | 16 | 198 | 1.6 | 6.4 | 0.08 | 0.08 | 0.08 | 89 | 1010.8 |
| 20260506145525 | 16 | 203 | 1.6 | 6.4 | 0.08 | 0.08 | 0.08 | 88 | 1010.9 |
| 20260506144520 | 16 | 185 | 1.6 | 3.2 | 0.00 | 0.00 | 0.00 | 87 | 1010.9 |
| 20260506143519 | 16 | 200 | 1.6 | 3.2 | 0.00 | 0.00 | 0.00 | 86 | 1010.8 |
| 20260506142542 | 16 | 168 | 1.6 | 6.4 | 0.00 | 0.00 | 0.00 | 85 | 1010.9 |
| 20260506141515 | 16 | 120 | 0.0 | 4.8 | 0.00 | 0.00 | 0.00 | 82 | 1010.9 |
| 20260506140522 | 17 | 204 | 1.6 | 6.4 | 0.00 | 0.00 | 0.00 | 77 | 1010.9 |
| 20260506135527 | 18 | 236 | 1.6 | 4.8 | 0.00 | 0.00 | 0.00 | 71 | 1011.1 |
| 20260506134516 | 18 | 195 | 1.6 | 4.8 | 0.00 | 0.00 | 0.00 | 67 | 1011.2 |
| 20260506133523 | 18 | 179 | 1.6 | 6.4 | 0.00 | 0.00 | 0.00 | 65 | 1011.0 |
| 20260506132520 | 18 | 212 | 1.6 | 6.4 | 0.00 | 0.00 | 0.00 | 66 | 1010.9 |
| 20260506131520 | 18 | 205 | 1.6 | 4.8 | 0.00 | 0.00 | 0.00 | 64 | 1010.8 |
| 20260506130522 | 19 | 205 | 1.6 | 4.8 | 0.00 | 0.00 | 0.00 | 63 | 1010.7 |
| 20260506125529 | 19 | 218 | 3.2 | 9.7 | 0.00 | 0.00 | 0.00 | 63 | 1010.6 |
| 20260506124520 | 19 | 189 | 1.6 | 6.4 | 0.00 | 0.00 | 0.00 | 63 | 1010.7 |
| 20260506123528 | 19 | 168 | 1.6 | 3.2 | 0.00 | 0.00 | 0.00 | 63 | 1010.8 |
| 20260506122516 | 19 | 198 | 3.2 | 8.0 | 0.00 | 0.00 | 0.00 | 62 | 1011.1 |
| 20260506121523 | 19 | 164 | 1.6 | 4.8 | 0.00 | 0.00 | 0.00 | 62 | 1010.9 |
| 20260506120542 | 19 | 217 | 3.2 | 8.0 | 0.00 | 0.00 | 0.00 | 62 | 1011.0 |
| 20260506115517 | 19 | 218 | 3.2 | 9.7 | 0.00 | 0.00 | 0.00 | 62 | 1010.9 |
| 20260506114516 | 19 | 168 | 3.2 | 8.0 | 0.00 | 0.00 | 0.00 | 63 | 1010.7 |
| 20260506113530 | 19 | 217 | 3.2 | 8.0 | 0.00 | 0.00 | 0.00 | 63 | 1010.5 |
| 20260506112518 | 18 | 168 | 1.6 | 6.4 | 0.00 | 0.00 | 0.00 | 64 | 1010.6 |
| 20260506111546 | 18 | 84 | 1.6 | 4.8 | 0.00 | 0.00 | 0.00 | 64 | 1010.4 |
| 20260506110522 | 18 | 175 | 3.2 | 6.4 | 0.00 | 0.00 | 0.00 | 64 | 1010.4 |
| 20260506105521 | 18 | 194 | 3.2 | 6.4 | 0.00 | 0.00 | 0.00 | 64 | 1010.4 |
| 20260506104522 | 18 | 197 | 1.6 | 8.0 | 0.00 | 0.00 | 0.00 | 64 | 1010.3 |
| 20260506103516 | 17 | 177 | 1.6 | 11.3 | 0.00 | 0.00 | 0.00 | 64 | 1010.3 |
| 20260506102522 | 17 | 200 | 1.6 | 6.4 | 0.00 | 0.00 | 0.00 | 64 | 1010.3 |
| 20260506101549 | 17 | 179 | 1.6 | 6.4 | 0.00 | 0.00 | 0.00 | 64 | 1010.1 |
| 20260506100539 | 17 | 185 | 1.6 | 4.8 | 0.00 | 0.00 | 0.00 | 63 | 1010.3 |
| 20260506095523 | 17 | 214 | 1.6 | 8.0 | 0.00 | 0.00 | 0.00 | 63 | 1010.3 |
| 20260506094523 | 17 | 174 | 1.6 | 4.8 | 0.00 | 0.00 | 0.00 | 63 | 1010.3 |
| 20260506093515 | 17 | 157 | 1.6 | 8.0 | 0.00 | 0.00 | 0.00 | 62 | 1010.4 |
| 20260506092523 | 18 | 185 | 3.2 | 8.0 | 0.00 | 0.00 | 0.00 | 62 | 1010.3 |